User: anonymous   Login
Location: Vancouver
(49.2500°N, 123.1330°W)
Time: 23:51:00
(UTC-07:00)
Language:

Cosmos 1340 Rocket - Orbit

View from above orbital plane
View from above orbital plane
View from above satellite
View from above satellite

Ground track
Ground track

The orbit data is extracted from the following two-line orbital elements,

1 13068U 82013B   16270.53594269  .00000495  00000-0  31566-4 0  9994
2 13068  81.2060 163.4073 0022833 106.8202 253.5528 15.06712208883795
Epoch (UTC): 26 September 2016 12:51:45
Eccentricity: 0.0022833
inclination: 81.2060°
perigee height: 530 km
apogee height: 562 km
right ascension of ascending node: 163.4073°
argument of perigee: 106.8202°
revolutions per day: 15.06712208
mean anomaly at epoch: 253.5528°
orbit number at epoch: 88379

The dashed part of the orbit path shows where the satellite is in the earth's shadow,  

DLR